Tracking 20712 objects as of 29-May-2020
HD Live streaming from Space Station
objects crossing your sky now

ARIANE 5 R/B

Track ARIANE 5 R/B now!


NORAD ID: 28904
Int'l Code: 2005-046C
Perigee: 431.6 km
Apogee: 35,431.6 km
Inclination: 7.0 °
Period: 628.4 minutes
Semi major axis: 24302 km
RCS: 36.3411 m2 (large)
Launch date: November 16, 2005
Source: France (FR)
Launch site: FRENCH GUIANA (FRGUI)

Note: This is a ROCKET BODY
aabbcc
Your satellite tracking list
Your tracking list is empty




NASA's NSSDC Master Catalog

Two Line Element Set (TLE):
1 28904U 05046C   20148.50667667 -.00000043 +00000-0 -95235-4 0  9993
2 28904 007.0338 276.7466 7200858 025.0452 356.9742 02.29152073121485
Source of the keplerian elements: AFSPC